Location: Praha
(50.0833°N, 14.4667°E)
Time: 20:49:03
(UTC+01:00)

ISS - Visible Passes

Search period start: 18 January 2018 00:00
Search period end: 28 January 2018 00:00
Orbit: 402 x 407 km, 51.6° (Epoch: 18 January)

Date Brightness Start Highest point End Pass type
(mag) Time Alt. Az. Time Alt. Az. Time Alt. Az.
26 Jan -1.8 18:54:46 10° SSW 18:56:18 20° S 18:56:18 20° S visible
27 Jan -1.9 18:03:13 10° S 18:05:22 17° SE 18:06:18 15° ESE visible
27 Jan -1.0 19:38:09 10° WSW 19:38:58 16° WSW 19:38:58 16° WSW visible
